EST,Max TemperatureF,Mean TemperatureF,Min TemperatureF,Max Dew PointF,MeanDew PointF,Min DewpointF,Max Humidity, Mean Humidity, Min Humidity, Max Sea Level PressureIn, Mean Sea Level PressureIn, Min Sea Level PressureIn, Max VisibilityMiles, Mean VisibilityMiles, Min VisibilityMiles, Max Wind SpeedMPH, Mean Wind SpeedMPH, Max Gust SpeedMPH,PrecipitationIn, CloudCover, Events, WindDirDegrees
2014-1-1,9,4,-1,2,-1,-5,85,76,65,30.43,30.36,30.26,10,10,10,12,1,,0.00,5,,65
2014-1-2,8,0,-9,3,-3,-14,86,81,70,30.38,30.31,30.26,10,9,1,9,1,,0.00,6,Snow,72
2014-1-3,18,5,-8,9,0,-13,83,75,63,30.32,30.14,29.76,10,9,2,15,3,25,0.00,7,Snow,189
2014-1-4,31,24,18,28,19,8,90,79,64,30.00,29.74,29.61,10,8,2,23,13,33,0.00,8,Snow,230
2014-1-5,19,15,11,14,10,5,83,75,65,30.11,30.00,29.78,10,9,2,17,3,28,0.00,8,Snow,351
2014-1-6,11,6,0,5,0,-6,82,75,65,29.81,29.75,29.71,10,4,0,18,12,26,0.00,8,Snow,304
2014-1-7,8,4,0,4,1,-5,82,77,73,30.09,29.90,29.78,4,2,0,21,14,33,0.00,8,Snow,270
2014-1-8,15,12,9,10,7,3,86,78,70,30.41,30.24,30.09,10,5,1,13,5,23,0.00,8,Snow,262
2014-1-9,18,10,2,12,7,0,89,77,65,30.48,30.37,30.18,10,10,1,9,5,,0.00,6,Snow,174
2014-1-10,32,24,16,32,24,10,97,89,76,30.18,29.91,29.52,10,6,2,10,3,,0.00,8,Snow,143
2014-1-11,36,34,31,35,32,28,98,94,87,29.51,29.35,29.24,10,6,0,16,6,26,0.00,8,Rain-Snow,258
2014-1-12,40,36,31,30,27,25,89,75,56,29.72,29.60,29.51,10,10,10,17,9,26,0.00,5,,229
2014-1-13,38,34,30,34,31,27,94,87,74,29.59,29.48,29.41,10,9,2,15,7,22,0.00,7,Rain-Snow,239
2014-1-14,30,26,23,27,23,19,93,82,68,29.71,29.65,29.58,10,6,0,15,5,23,0.00,8,Snow,36
2014-1-15,22,18,14,20,13,8,89,80,69,29.86,29.78,29.59,10,7,1,14,9,26,0.00,8,Snow,277
2014-1-16,24,21,18,21,17,13,93,82,75,29.72,29.57,29.51,10,7,1,14,8,23,0.00,8,Snow,146
2014-1-17,28,23,18,26,20,15,93,88,78,29.80,29.67,29.55,10,7,1,12,4,18,0.00,8,Snow,346
2014-1-18,21,18,16,19,15,12,91,83,70,29.84,29.78,29.64,10,8,2,7,2,,0.00,7,Snow,282
2014-1-19,29,22,14,27,19,10,95,84,76,29.63,29.44,29.33,10,6,0,20,12,33,0.00,8,Snow,275
2014-1-20,15,6,-4,9,0,-8,84,72,53,30.13,29.88,29.57,10,9,4,12,4,20,0.00,5,Snow,4
2014-1-21,7,-2,-11,-1,-8,-17,82,74,64,30.24,30.18,30.12,10,10,7,8,4,,0.00,6,,54
2014-1-22,11,6,1,7,2,-5,85,80,73,30.12,29.93,29.81,10,4,1,12,5,16,0.00,8,Snow,80
2014-1-23,5,0,-6,1,-6,-11,84,73,54,30.41,30.28,29.98,10,9,2,18,9,23,0.00,4,Snow,11
2014-1-24,25,12,1,23,11,-3,94,86,79,30.27,29.68,29.19,10,2,0,24,11,43,0.00,8,Snow,223
2014-1-25,26,16,5,24,3,-7,93,68,57,29.61,29.40,29.13,10,6,0,20,13,50,0.00,6,Snow,294
2014-1-26,13,9,5,11,3,-5,88,78,58,29.61,29.41,29.22,10,5,1,16,6,25,0.00,8,Snow,199
2014-1-27,6,3,0,2,-5,-10,82,73,63,30.09,29.85,29.38,10,4,1,20,9,28,0.00,7,Snow,294
2014-1-28,8,5,2,6,2,-3,89,84,79,30.09,30.00,29.84,5,1,0,21,13,32,0.00,8,Snow,248
2014-1-29,15,12,8,9,7,5,89,83,76,29.93,29.87,29.79,10,5,0,18,12,33,0.00,6,Snow,243
2014-1-30,27,21,15,25,17,9,94,78,65,29.87,29.65,29.51,10,8,0,17,8,26,0.00,6,Snow,221
2014-1-31,16,12,8,12,9,5,88,81,75,30.06,29.97,29.73,10,8,1,14,7,21,0.00,8,Snow,256